Year,Month,Day,Hour,Minute,Value (Times are PST for temperature in C)
2016,04,24,00,00,9.90
2016,04,24,00,01,9.90
2016,04,24,00,02,9.90
2016,04,24,00,03,9.90
2016,04,24,00,04,9.90
2016,04,24,00,05,9.90
2016,04,24,00,06,9.90
2016,04,24,00,07,9.90
2016,04,24,00,08,9.90
2016,04,24,00,09,9.90
2016,04,24,00,10,9.90
2016,04,24,00,11,9.90
2016,04,24,00,12,9.90
2016,04,24,00,13,9.90
2016,04,24,00,14,9.90
2016,04,24,00,15,9.90
2016,04,24,00,16,9.90
2016,04,24,00,17,9.90
2016,04,24,00,18,9.90
2016,04,24,00,19,9.90
2016,04,24,00,20,9.90
2016,04,24,00,21,9.90
2016,04,24,00,22,9.90
2016,04,24,00,23,9.90
2016,04,24,00,24,9.90
2016,04,24,00,25,9.90
2016,04,24,00,26,9.90
2016,04,24,00,27,9.90
2016,04,24,00,28,9.90
2016,04,24,00,29,9.80
2016,04,24,00,30,9.80
2016,04,24,00,31,9.80
2016,04,24,00,32,9.80
2016,04,24,00,33,9.80
2016,04,24,00,34,9.80
2016,04,24,00,35,9.80
2016,04,24,00,36,9.80
2016,04,24,00,37,9.80
2016,04,24,00,38,9.80
2016,04,24,00,39,9.80
2016,04,24,00,40,9.80
2016,04,24,00,41,9.80
2016,04,24,00,42,9.80
2016,04,24,00,43,9.80
2016,04,24,00,44,9.80
2016,04,24,00,45,9.80
2016,04,24,00,46,9.80
2016,04,24,00,47,9.80
2016,04,24,00,48,9.80
2016,04,24,00,49,9.80
2016,04,24,00,50,9.80
2016,04,24,00,51,9.80
2016,04,24,00,52,9.80
2016,04,24,00,53,9.70
2016,04,24,00,54,9.70
2016,04,24,00,55,9.70
2016,04,24,00,56,9.70
2016,04,24,00,57,9.70
2016,04,24,00,58,9.60
2016,04,24,00,59,9.60
2016,04,24,01,00,9.60
2016,04,24,01,01,9.60
2016,04,24,01,02,9.60
2016,04,24,01,03,9.60
2016,04,24,01,04,9.50
2016,04,24,01,05,9.50
2016,04,24,01,06,9.50
2016,04,24,01,07,9.50
2016,04,24,01,08,9.40
2016,04,24,01,09,9.40
2016,04,24,01,10,9.40
2016,04,24,01,11,9.40
2016,04,24,01,12,9.40
2016,04,24,01,13,9.40
2016,04,24,01,14,9.40
2016,04,24,01,15,9.40
2016,04,24,01,16,9.30
2016,04,24,01,17,9.30
2016,04,24,01,18,9.30
2016,04,24,01,19,9.30
2016,04,24,01,20,9.30
2016,04,24,01,21,9.30
2016,04,24,01,22,9.30
2016,04,24,01,23,9.30
2016,04,24,01,24,9.30
2016,04,24,01,25,9.30
2016,04,24,01,26,9.30
2016,04,24,01,27,9.30
2016,04,24,01,28,9.30
2016,04,24,01,29,9.30
2016,04,24,01,30,9.30
2016,04,24,01,31,9.30
2016,04,24,01,32,9.30
2016,04,24,01,33,9.30
2016,04,24,01,34,9.30
2016,04,24,01,35,9.30
2016,04,24,01,36,9.30
2016,04,24,01,37,9.30
2016,04,24,01,38,9.30
2016,04,24,01,39,9.20
2016,04,24,01,40,9.20
2016,04,24,01,41,9.20
2016,04,24,01,42,9.20
2016,04,24,01,43,9.20
2016,04,24,01,44,9.20
2016,04,24,01,45,9.20
2016,04,24,01,46,9.20
2016,04,24,01,47,9.20
2016,04,24,01,48,9.20
2016,04,24,01,49,9.20
2016,04,24,01,50,9.20
2016,04,24,01,51,9.20
2016,04,24,01,52,9.20
2016,04,24,01,53,9.20
2016,04,24,01,54,9.20
2016,04,24,01,55,9.20
2016,04,24,01,56,9.20
2016,04,24,01,57,9.20
2016,04,24,01,58,9.20
2016,04,24,01,59,9.20
2016,04,24,02,00,9.20
2016,04,24,02,01,9.20
2016,04,24,02,02,9.20
2016,04,24,02,03,9.20
2016,04,24,02,04,9.20
2016,04,24,02,05,9.20
2016,04,24,02,06,9.20
2016,04,24,02,07,9.20
2016,04,24,02,08,9.20
2016,04,24,02,09,9.20
2016,04,24,02,10,9.20
2016,04,24,02,11,9.20
2016,04,24,02,12,9.20
2016,04,24,02,13,9.20
2016,04,24,02,14,9.20
2016,04,24,02,15,9.20
2016,04,24,02,16,9.20
2016,04,24,02,17,9.20
2016,04,24,02,18,9.20
2016,04,24,02,19,9.20
2016,04,24,02,20,9.20
2016,04,24,02,21,9.10
2016,04,24,02,22,9.10
2016,04,24,02,23,9.10
2016,04,24,02,24,9.10
2016,04,24,02,25,9.10
2016,04,24,02,26,9.10
2016,04,24,02,27,9.10
2016,04,24,02,28,9.10
2016,04,24,02,29,9.10
2016,04,24,02,30,9.10
2016,04,24,02,31,9.10
2016,04,24,02,32,9.10
2016,04,24,02,33,9.10
2016,04,24,02,34,9.10
2016,04,24,02,35,9.10
2016,04,24,02,36,9.10
2016,04,24,02,37,9.10
2016,04,24,02,38,9.10
2016,04,24,02,39,9.10
2016,04,24,02,40,9.10
2016,04,24,02,41,9.10
2016,04,24,02,42,9.10
2016,04,24,02,43,9.00
2016,04,24,02,44,9.00
2016,04,24,02,45,9.00
2016,04,24,02,46,9.00
2016,04,24,02,47,9.00
2016,04,24,02,48,8.90
2016,04,24,02,49,8.90
2016,04,24,02,50,8.90
2016,04,24,02,51,8.90
2016,04,24,02,52,8.90
2016,04,24,02,53,8.90
2016,04,24,02,54,8.90
2016,04,24,02,55,8.80
2016,04,24,02,56,8.80
2016,04,24,02,57,8.80
2016,04,24,02,58,8.80
2016,04,24,02,59,8.80
2016,04,24,03,00,8.80
2016,04,24,03,01,8.70
2016,04,24,03,02,8.70
2016,04,24,03,06,8.70
2016,04,24,03,07,8.70
2016,04,24,03,08,8.70
2016,04,24,03,09,8.70
2016,04,24,03,10,8.70
2016,04,24,03,11,8.70
2016,04,24,03,12,8.60
2016,04,24,03,13,8.60
2016,04,24,03,14,8.60
2016,04,24,03,15,8.60
2016,04,24,03,16,8.60
2016,04,24,03,17,8.60
2016,04,24,03,18,8.60
2016,04,24,03,19,8.60
2016,04,24,03,20,8.60
2016,04,24,03,21,8.60
2016,04,24,03,22,8.60
2016,04,24,03,23,8.60
2016,04,24,03,24,8.50
2016,04,24,03,25,8.50
2016,04,24,03,26,8.50
2016,04,24,03,27,8.50
2016,04,24,03,28,8.50
2016,04,24,03,29,8.50
2016,04,24,03,30,8.50
2016,04,24,03,31,8.50
2016,04,24,03,32,8.50
2016,04,24,03,33,8.40
2016,04,24,03,34,8.40
2016,04,24,03,35,8.40
2016,04,24,03,36,8.40
2016,04,24,03,37,8.40
2016,04,24,03,38,8.40
2016,04,24,03,39,8.40
2016,04,24,03,40,8.40
2016,04,24,03,41,8.40
2016,04,24,03,42,8.40
2016,04,24,03,43,8.40
2016,04,24,03,44,8.40
2016,04,24,03,45,8.40
2016,04,24,03,46,8.50
2016,04,24,03,47,8.40
2016,04,24,03,48,8.40
2016,04,24,03,49,8.40
2016,04,24,03,50,8.40
2016,04,24,03,51,8.40
2016,04,24,03,52,8.40
2016,04,24,03,53,8.40
2016,04,24,03,54,8.40
2016,04,24,03,55,8.40
2016,04,24,03,56,8.30
2016,04,24,03,57,8.30
2016,04,24,03,58,8.30
2016,04,24,03,59,8.30
2016,04,24,04,00,8.30
2016,04,24,04,01,8.30
2016,04,24,04,02,8.30
2016,04,24,04,03,8.30
2016,04,24,04,04,8.20
2016,04,24,04,05,8.20
2016,04,24,04,06,8.20
2016,04,24,04,07,8.20
2016,04,24,04,08,8.20
2016,04,24,04,09,8.20
2016,04,24,04,10,8.20
2016,04,24,04,11,8.10
2016,04,24,04,12,8.10
2016,04,24,04,13,8.10
2016,04,24,04,14,8.10
2016,04,24,04,15,8.10
2016,04,24,04,16,8.10
2016,04,24,04,17,8.10
2016,04,24,04,18,8.00
2016,04,24,04,19,8.00
2016,04,24,04,20,8.00
2016,04,24,04,21,8.00
2016,04,24,04,22,7.90
2016,04,24,04,23,7.90
2016,04,24,04,24,7.90
2016,04,24,04,25,7.90
2016,04,24,04,26,7.90
2016,04,24,04,27,7.90
2016,04,24,04,28,7.90
2016,04,24,04,29,7.80
2016,04,24,04,30,7.80
2016,04,24,04,31,7.80
2016,04,24,04,32,7.80
2016,04,24,04,33,7.80
2016,04,24,04,34,7.80
2016,04,24,04,35,7.80
2016,04,24,04,36,7.80
2016,04,24,04,37,7.80
2016,04,24,04,38,7.80
2016,04,24,04,39,7.80
2016,04,24,04,40,7.80
2016,04,24,04,41,7.80
2016,04,24,04,42,7.80
2016,04,24,04,43,7.80
2016,04,24,04,44,7.80
2016,04,24,04,45,7.80
2016,04,24,04,46,7.80
2016,04,24,04,47,7.70
2016,04,24,04,48,7.70
2016,04,24,04,49,7.70
2016,04,24,04,50,7.70
2016,04,24,04,51,7.70
2016,04,24,04,52,7.70
2016,04,24,04,53,7.70
2016,04,24,04,54,7.70
2016,04,24,04,55,7.70
2016,04,24,04,56,7.70
2016,04,24,04,57,7.70
2016,04,24,04,58,7.70
2016,04,24,04,59,7.70
2016,04,24,05,00,7.70
2016,04,24,05,01,7.60
2016,04,24,05,02,7.60
2016,04,24,05,03,7.60
2016,04,24,05,04,7.60
2016,04,24,05,05,7.60
2016,04,24,05,06,7.60
2016,04,24,05,07,7.60
2016,04,24,05,08,7.60
2016,04,24,05,09,7.60
2016,04,24,05,10,7.60
2016,04,24,05,11,7.60
2016,04,24,05,12,7.60
2016,04,24,05,13,7.50
2016,04,24,05,14,7.50
2016,04,24,05,15,7.50
2016,04,24,05,16,7.50
2016,04,24,05,17,7.50
2016,04,24,05,18,7.50
2016,04,24,05,19,7.50
2016,04,24,05,20,7.50
2016,04,24,05,21,7.50
2016,04,24,05,22,7.50
2016,04,24,05,23,7.50
2016,04,24,05,24,7.50
2016,04,24,05,25,7.50
2016,04,24,05,26,7.50
2016,04,24,05,27,7.50
2016,04,24,05,28,7.50
2016,04,24,05,29,7.40
2016,04,24,05,30,7.40
2016,04,24,05,31,7.40
2016,04,24,05,32,7.50
2016,04,24,05,33,7.50
2016,04,24,05,34,7.50
2016,04,24,05,35,7.50
2016,04,24,05,36,7.50
2016,04,24,05,37,7.50
2016,04,24,05,38,7.50
2016,04,24,05,39,7.50
2016,04,24,05,40,7.40
2016,04,24,05,41,7.40
2016,04,24,05,42,7.40
2016,04,24,05,43,7.40
2016,04,24,05,44,7.40
2016,04,24,05,45,7.40
2016,04,24,05,46,7.30
2016,04,24,05,47,7.30
2016,04,24,05,48,7.30
2016,04,24,05,49,7.30
2016,04,24,05,50,7.30
2016,04,24,05,51,7.30
2016,04,24,05,52,7.30
2016,04,24,05,53,7.30
2016,04,24,05,54,7.30
2016,04,24,05,55,7.30
2016,04,24,05,56,7.30
2016,04,24,05,57,7.30
2016,04,24,05,58,7.30
2016,04,24,05,59,7.30
2016,04,24,06,00,7.30
2016,04,24,06,01,7.30
2016,04,24,06,02,7.30
2016,04,24,06,03,7.30
2016,04,24,06,04,7.30
2016,04,24,06,05,7.30
2016,04,24,06,06,7.30
2016,04,24,06,07,7.30
2016,04,24,06,08,7.30
2016,04,24,06,09,7.30
2016,04,24,06,10,7.30
2016,04,24,06,11,7.30
2016,04,24,06,12,7.30
2016,04,24,06,13,7.30
2016,04,24,06,14,7.30
2016,04,24,06,15,7.30
2016,04,24,06,16,7.30
2016,04,24,06,17,7.30
2016,04,24,06,18,7.40
2016,04,24,06,19,7.40
2016,04,24,06,20,7.40
2016,04,24,06,21,7.40
2016,04,24,06,22,7.40
2016,04,24,06,23,7.40
2016,04,24,06,24,7.40
2016,04,24,06,25,7.40
2016,04,24,06,26,7.40
2016,04,24,06,27,7.40
2016,04,24,06,28,7.40
2016,04,24,06,29,7.40
2016,04,24,06,30,7.40
2016,04,24,06,31,7.40
2016,04,24,06,32,7.40
2016,04,24,06,33,7.40
2016,04,24,06,34,7.40
2016,04,24,06,35,7.40
2016,04,24,06,36,7.40
2016,04,24,06,37,7.40
2016,04,24,06,38,7.40
2016,04,24,06,39,7.40
2016,04,24,06,40,7.40
2016,04,24,06,41,7.40
2016,04,24,06,42,7.40
2016,04,24,06,43,7.40
2016,04,24,06,44,7.40
2016,04,24,06,45,7.40
2016,04,24,06,46,7.40
2016,04,24,06,47,7.40
2016,04,24,06,48,7.40
2016,04,24,06,49,7.30
2016,04,24,06,50,7.30
2016,04,24,06,51,7.30
2016,04,24,06,52,7.30
2016,04,24,06,53,7.30
2016,04,24,06,54,7.30
2016,04,24,06,55,7.30
2016,04,24,06,56,7.30
2016,04,24,06,57,7.30
2016,04,24,06,58,7.20
2016,04,24,06,59,7.20
2016,04,24,07,00,7.20
2016,04,24,07,01,7.20
2016,04,24,07,02,7.20
2016,04,24,07,03,7.20
2016,04,24,07,04,7.20
2016,04,24,07,05,7.20
2016,04,24,07,06,7.20
2016,04,24,07,07,7.20
2016,04,24,07,08,7.20
2016,04,24,07,09,7.20
2016,04,24,07,10,7.20
2016,04,24,07,11,7.20
2016,04,24,07,12,7.20
2016,04,24,07,13,7.30
2016,04,24,07,14,7.30
2016,04,24,07,15,7.30
2016,04,24,07,16,7.30
2016,04,24,07,17,7.30
2016,04,24,07,18,7.30
2016,04,24,07,19,7.30
2016,04,24,07,20,7.30
2016,04,24,07,21,7.30
2016,04,24,07,22,7.30
2016,04,24,07,23,7.30
2016,04,24,07,24,7.30
2016,04,24,07,25,7.30
2016,04,24,07,26,7.40
2016,04,24,07,27,7.40
2016,04,24,07,28,7.40
2016,04,24,07,29,7.40
2016,04,24,07,30,7.40
2016,04,24,07,31,7.40
2016,04,24,07,32,7.40
2016,04,24,07,33,7.40
2016,04,24,07,34,7.40
2016,04,24,07,35,7.40
2016,04,24,07,36,7.40
2016,04,24,07,37,7.50
2016,04,24,07,38,7.50
2016,04,24,07,39,7.50
2016,04,24,07,40,7.50
2016,04,24,07,41,7.50
2016,04,24,07,42,7.50
2016,04,24,07,43,7.60
2016,04,24,07,44,7.60
2016,04,24,07,45,7.60
2016,04,24,07,46,7.70
2016,04,24,07,47,7.70
2016,04,24,07,48,7.80
2016,04,24,07,49,7.80
2016,04,24,07,50,7.80
2016,04,24,07,51,7.90
2016,04,24,07,52,7.90
2016,04,24,07,53,8.00
2016,04,24,07,54,8.00
2016,04,24,07,55,8.10
2016,04,24,07,56,8.10
2016,04,24,07,57,8.10
2016,04,24,07,58,8.20
2016,04,24,07,59,8.20
2016,04,24,08,00,8.20
2016,04,24,08,01,8.20
2016,04,24,08,02,8.20
2016,04,24,08,03,8.20
2016,04,24,08,04,8.30
2016,04,24,08,05,8.30
2016,04,24,08,06,8.30
2016,04,24,08,07,8.30
2016,04,24,08,08,8.30
2016,04,24,08,09,8.30
2016,04,24,08,10,8.40
2016,04,24,08,11,8.40
2016,04,24,08,12,8.40
2016,04,24,08,13,8.40
2016,04,24,08,14,8.40
2016,04,24,08,15,8.40
2016,04,24,08,16,8.40
2016,04,24,08,17,8.50
2016,04,24,08,18,8.50
2016,04,24,08,19,8.60
2016,04,24,08,20,8.60
2016,04,24,08,21,8.60
2016,04,24,08,22,8.60
2016,04,24,08,23,8.70
2016,04,24,08,24,8.70
2016,04,24,08,25,8.70
2016,04,24,08,26,8.70
2016,04,24,08,27,8.70
2016,04,24,08,28,8.70
2016,04,24,08,29,8.70
2016,04,24,08,30,8.70
2016,04,24,08,31,8.60
2016,04,24,08,32,8.60
2016,04,24,08,33,8.50
2016,04,24,08,34,8.50
2016,04,24,08,35,8.40
2016,04,24,08,36,8.40
2016,04,24,08,37,8.40
2016,04,24,08,38,8.40
2016,04,24,08,39,8.40
2016,04,24,08,40,8.40
2016,04,24,08,41,8.40
2016,04,24,08,42,8.40
2016,04,24,08,43,8.40
2016,04,24,08,44,8.40
2016,04,24,08,45,8.50
2016,04,24,08,46,8.50
2016,04,24,08,47,8.60
2016,04,24,08,48,8.70
2016,04,24,08,49,8.70
2016,04,24,08,50,8.70
2016,04,24,08,51,8.80
2016,04,24,08,52,8.80
2016,04,24,08,53,8.80
2016,04,24,08,54,8.80
2016,04,24,08,55,8.80
2016,04,24,08,56,8.80
2016,04,24,08,57,8.80
2016,04,24,08,58,8.80
2016,04,24,08,59,8.90
2016,04,24,09,00,8.90
2016,04,24,09,01,8.90
2016,04,24,09,02,8.90
2016,04,24,09,03,8.90
2016,04,24,09,04,9.00
2016,04,24,09,05,9.00
2016,04,24,09,06,9.00
2016,04,24,09,07,9.00
2016,04,24,09,08,9.00
2016,04,24,09,09,8.90
2016,04,24,09,10,8.90
2016,04,24,09,11,8.90
2016,04,24,09,12,8.90
2016,04,24,09,13,8.90
2016,04,24,09,14,8.90
2016,04,24,09,15,8.90
2016,04,24,09,16,8.90
2016,04,24,09,17,8.90
2016,04,24,09,18,8.80
2016,04,24,09,19,8.80
2016,04,24,09,20,8.90
2016,04,24,09,21,8.90
2016,04,24,09,22,8.90
2016,04,24,09,23,8.90
2016,04,24,09,24,9.00
2016,04,24,09,25,9.10
2016,04,24,09,26,9.10
2016,04,24,09,27,9.20
2016,04,24,09,28,9.20
2016,04,24,09,29,9.20
2016,04,24,09,30,9.20
2016,04,24,09,31,9.20
2016,04,24,09,32,9.30
2016,04,24,09,33,9.30
2016,04,24,09,34,9.30
2016,04,24,09,35,9.30
2016,04,24,09,36,9.40
2016,04,24,09,37,9.40
2016,04,24,09,38,9.40
2016,04,24,09,39,9.50
2016,04,24,09,40,9.60
2016,04,24,09,41,9.60
2016,04,24,09,42,9.70
2016,04,24,09,43,9.80
2016,04,24,09,44,9.80
2016,04,24,09,45,9.90
2016,04,24,09,46,9.90
2016,04,24,09,47,10.00
2016,04,24,09,48,10.00
2016,04,24,09,49,10.10
2016,04,24,09,50,10.10
2016,04,24,09,51,10.00
2016,04,24,09,52,10.00
2016,04,24,09,53,10.00
2016,04,24,09,54,10.00
2016,04,24,09,55,9.90
2016,04,24,09,56,9.90
2016,04,24,09,57,9.90
2016,04,24,09,58,9.90
2016,04,24,09,59,9.90
2016,04,24,10,00,9.80
2016,04,24,10,01,9.80
2016,04,24,10,02,9.80
2016,04,24,10,03,9.80
2016,04,24,10,04,9.80
2016,04,24,10,05,9.80
2016,04,24,10,06,9.80
2016,04,24,10,07,9.80
2016,04,24,10,08,9.90
2016,04,24,10,09,9.90
2016,04,24,10,10,9.90
2016,04,24,10,11,9.90
2016,04,24,10,12,9.90
2016,04,24,10,13,10.00
2016,04,24,10,14,10.00
2016,04,24,10,15,10.00
2016,04,24,10,16,10.00
2016,04,24,10,17,10.00
2016,04,24,10,18,10.00
2016,04,24,10,19,10.00
2016,04,24,10,20,10.10
2016,04,24,10,21,10.10
2016,04,24,10,22,10.10
2016,04,24,10,23,10.10
2016,04,24,10,24,10.10
2016,04,24,10,25,10.10
2016,04,24,10,26,10.10
2016,04,24,10,27,10.20
2016,04,24,10,28,10.30
2016,04,24,10,29,10.40
2016,04,24,10,30,10.40
2016,04,24,10,31,10.40
2016,04,24,10,32,10.40
2016,04,24,10,33,10.40
2016,04,24,10,34,10.40
2016,04,24,10,35,10.40
2016,04,24,10,36,10.40
2016,04,24,10,37,10.40
2016,04,24,10,38,10.40
2016,04,24,10,39,10.40
2016,04,24,10,40,10.30
2016,04,24,10,41,10.30
2016,04,24,10,42,10.40
2016,04,24,10,43,10.40
2016,04,24,10,44,10.40
2016,04,24,10,45,10.40
2016,04,24,10,46,10.40
2016,04,24,10,47,10.40
2016,04,24,10,48,10.40
2016,04,24,10,49,10.50
2016,04,24,10,50,10.50
2016,04,24,10,51,10.50
2016,04,24,10,52,10.50
2016,04,24,10,53,10.50
2016,04,24,10,54,10.50
2016,04,24,10,55,10.60
2016,04,24,10,56,10.60
2016,04,24,10,57,10.70
2016,04,24,10,58,10.70
2016,04,24,10,59,10.70
2016,04,24,11,00,10.70
2016,04,24,11,01,10.70
2016,04,24,11,02,10.70
2016,04,24,11,03,10.70
2016,04,24,11,04,10.80
2016,04,24,11,05,10.80
2016,04,24,11,06,10.80
2016,04,24,11,07,10.80
2016,04,24,11,08,10.80
2016,04,24,11,09,10.80
2016,04,24,11,10,10.80
2016,04,24,11,11,10.90
2016,04,24,11,12,10.90
2016,04,24,11,13,10.80
2016,04,24,11,14,10.80
2016,04,24,11,15,10.80
2016,04,24,11,16,10.80
2016,04,24,11,17,10.90
2016,04,24,11,18,10.90
2016,04,24,11,19,10.80
2016,04,24,11,20,10.80
2016,04,24,11,21,10.80
2016,04,24,11,22,10.80
2016,04,24,11,23,10.80
2016,04,24,11,24,10.80
2016,04,24,11,25,10.80
2016,04,24,11,26,10.80
2016,04,24,11,27,10.80
2016,04,24,11,28,10.90
2016,04,24,11,29,10.90
2016,04,24,11,30,10.90
2016,04,24,11,31,10.80
2016,04,24,11,32,10.90
2016,04,24,11,33,10.90
2016,04,24,11,34,10.90
2016,04,24,11,35,10.90
2016,04,24,11,36,10.90
2016,04,24,11,37,10.90
2016,04,24,11,38,10.90
2016,04,24,11,39,10.90
2016,04,24,11,40,10.90
2016,04,24,11,41,11.00
2016,04,24,11,42,11.00
2016,04,24,11,43,11.00
2016,04,24,11,44,11.10
2016,04,24,11,45,11.10
2016,04,24,11,46,11.20
2016,04,24,11,47,11.20
2016,04,24,11,48,11.20
2016,04,24,11,49,11.30
2016,04,24,11,50,11.30
2016,04,24,11,51,11.30
2016,04,24,11,52,11.30
2016,04,24,11,53,11.30
2016,04,24,11,54,11.40
2016,04,24,11,55,11.40
2016,04,24,11,56,11.40
2016,04,24,11,57,11.50
2016,04,24,11,58,11.60
2016,04,24,11,59,11.60
2016,04,24,12,00,11.60
2016,04,24,12,01,11.60
2016,04,24,12,02,11.60
2016,04,24,12,03,11.60
2016,04,24,12,04,11.60
2016,04,24,12,05,11.60
2016,04,24,12,06,11.60
2016,04,24,12,07,11.60
2016,04,24,12,08,11.60
2016,04,24,12,09,11.70
2016,04,24,12,10,11.70
2016,04,24,12,11,11.70
2016,04,24,12,12,11.70
2016,04,24,12,13,11.70
2016,04,24,12,14,11.70
2016,04,24,12,15,11.70
2016,04,24,12,16,11.80
2016,04,24,12,17,11.80
2016,04,24,12,18,11.80
2016,04,24,12,19,11.90
2016,04,24,12,20,11.90
2016,04,24,12,21,12.00
2016,04,24,12,22,12.00
2016,04,24,12,23,12.10
2016,04,24,12,24,12.10
2016,04,24,12,25,12.10
2016,04,24,12,26,12.20
2016,04,24,12,27,12.20
2016,04,24,12,28,12.20
2016,04,24,12,29,12.20
2016,04,24,12,30,12.20
2016,04,24,12,31,12.10
2016,04,24,12,32,12.10
2016,04,24,12,33,12.10
2016,04,24,12,34,12.20
2016,04,24,12,35,12.20
2016,04,24,12,36,12.20
2016,04,24,12,37,12.20
2016,04,24,12,38,12.20
2016,04,24,12,39,12.30
2016,04,24,12,40,12.40
2016,04,24,12,41,12.40
2016,04,24,12,42,12.50
2016,04,24,12,43,12.50
2016,04,24,12,44,12.60
2016,04,24,12,45,12.70
2016,04,24,12,46,12.70
2016,04,24,12,47,12.80
2016,04,24,12,48,12.80
2016,04,24,12,49,12.90
2016,04,24,12,50,12.90
2016,04,24,12,51,12.90
2016,04,24,12,52,12.90
2016,04,24,12,53,12.90
2016,04,24,12,54,12.90
2016,04,24,12,55,13.00
2016,04,24,12,56,12.90
2016,04,24,12,57,12.90
2016,04,24,12,58,12.90
2016,04,24,12,59,13.00
2016,04,24,13,00,13.00
2016,04,24,13,01,13.00
2016,04,24,13,02,13.00
2016,04,24,13,03,13.00
2016,04,24,13,04,13.00
2016,04,24,13,05,12.90
2016,04,24,13,06,12.90
2016,04,24,13,07,12.90
2016,04,24,13,08,12.90
2016,04,24,13,09,12.90
2016,04,24,13,10,12.90
2016,04,24,13,11,13.00
2016,04,24,13,12,13.00
2016,04,24,13,13,13.10
2016,04,24,13,14,13.10
2016,04,24,13,15,13.10
2016,04,24,13,16,13.10
2016,04,24,13,17,13.10
2016,04,24,13,18,13.10
2016,04,24,13,19,13.10
2016,04,24,13,20,13.10
2016,04,24,13,21,13.10
2016,04,24,13,22,13.10
2016,04,24,13,23,13.20
2016,04,24,13,24,13.20
2016,04,24,13,25,13.30
2016,04,24,13,26,13.30
2016,04,24,13,27,13.40
2016,04,24,13,28,13.50
2016,04,24,13,29,13.50
2016,04,24,13,30,13.60
2016,04,24,13,31,13.70
2016,04,24,13,32,13.70
2016,04,24,13,33,13.80
2016,04,24,13,34,13.70
2016,04,24,13,35,13.70
2016,04,24,13,36,13.70
2016,04,24,13,37,13.60
2016,04,24,13,38,13.50
2016,04,24,13,39,13.50
2016,04,24,13,40,13.40
2016,04,24,13,41,13.40
2016,04,24,13,42,13.30
2016,04,24,13,43,13.20
2016,04,24,13,44,13.20
2016,04,24,13,45,13.10
2016,04,24,13,46,13.10
2016,04,24,13,47,13.10
2016,04,24,13,48,13.20
2016,04,24,13,49,13.20
2016,04,24,13,50,13.30
2016,04,24,13,51,13.30
2016,04,24,13,52,13.30
2016,04,24,13,53,13.30
2016,04,24,13,54,13.30
2016,04,24,13,55,13.20
2016,04,24,13,56,13.30
2016,04,24,13,57,13.30
2016,04,24,13,58,13.20
2016,04,24,13,59,13.10
2016,04,24,14,00,13.10
2016,04,24,14,01,13.10
2016,04,24,14,02,13.10
2016,04,24,14,03,13.10
2016,04,24,14,04,13.10
2016,04,24,14,05,13.10
2016,04,24,14,06,13.10
2016,04,24,14,07,13.20
2016,04,24,14,08,13.20
2016,04,24,14,09,13.20
2016,04,24,14,10,13.10
2016,04,24,14,11,13.10
2016,04,24,14,12,13.10
2016,04,24,14,13,13.10
2016,04,24,14,14,13.00
2016,04,24,14,15,13.00
2016,04,24,14,16,12.90
2016,04,24,14,17,12.90
2016,04,24,14,18,12.90
2016,04,24,14,19,12.90
2016,04,24,14,20,12.90
2016,04,24,14,21,12.90
2016,04,24,14,22,12.90
2016,04,24,14,23,12.90
2016,04,24,14,24,13.00
2016,04,24,14,25,13.00
2016,04,24,14,26,13.00
2016,04,24,14,27,12.90
2016,04,24,14,28,12.90
2016,04,24,14,29,12.80
2016,04,24,14,30,12.80
2016,04,24,14,31,12.80
2016,04,24,14,32,12.70
2016,04,24,14,33,12.70
2016,04,24,14,34,12.70
2016,04,24,14,35,12.70
2016,04,24,14,36,12.70
2016,04,24,14,37,12.60
2016,04,24,14,38,12.60
2016,04,24,14,39,12.50
2016,04,24,14,40,12.50
2016,04,24,14,41,12.50
2016,04,24,14,42,12.40
2016,04,24,14,43,12.40
2016,04,24,14,44,12.30
2016,04,24,14,45,12.30
2016,04,24,14,46,12.20
2016,04,24,14,47,12.20
2016,04,24,14,48,12.20
2016,04,24,14,49,12.10
2016,04,24,14,50,12.10
2016,04,24,14,51,12.20
2016,04,24,14,52,12.20
2016,04,24,14,53,12.30
2016,04,24,14,54,12.40
2016,04,24,14,55,12.50
2016,04,24,14,56,12.60
2016,04,24,14,57,12.70
2016,04,24,14,58,12.80
2016,04,24,14,59,12.80
2016,04,24,15,00,12.70
2016,04,24,15,01,12.70
2016,04,24,15,02,12.80
2016,04,24,15,03,12.80
2016,04,24,15,04,12.80
2016,04,24,15,05,12.90
2016,04,24,15,06,12.90
2016,04,24,15,07,12.90
2016,04,24,15,08,12.80
2016,04,24,15,09,12.80
2016,04,24,15,10,12.80
2016,04,24,15,11,12.70
2016,04,24,15,12,12.70
2016,04,24,15,13,12.70
2016,04,24,15,14,12.70
2016,04,24,15,15,12.70
2016,04,24,15,16,12.60
2016,04,24,15,17,12.60
2016,04,24,15,18,12.60
2016,04,24,15,19,12.50
2016,04,24,15,20,12.40
2016,04,24,15,21,12.40
2016,04,24,15,22,12.30
2016,04,24,15,23,12.30
2016,04,24,15,24,12.30
2016,04,24,15,25,12.20
2016,04,24,15,26,12.20
2016,04,24,15,27,12.20
2016,04,24,15,28,12.10
2016,04,24,15,29,12.10
2016,04,24,15,30,12.00
2016,04,24,15,31,11.90
2016,04,24,15,32,11.80
2016,04,24,15,33,11.80
2016,04,24,15,34,11.70
2016,04,24,15,35,11.70
2016,04,24,15,36,11.80
2016,04,24,15,37,11.80
2016,04,24,15,38,11.80
2016,04,24,15,39,11.90
2016,04,24,15,40,11.90
2016,04,24,15,41,12.00
2016,04,24,15,42,12.00
2016,04,24,15,43,12.10
2016,04,24,15,44,12.10
2016,04,24,15,45,12.10
2016,04,24,15,46,12.10
2016,04,24,15,47,12.10
2016,04,24,15,48,12.20
2016,04,24,15,49,12.20
2016,04,24,15,50,12.10
2016,04,24,15,51,12.10
2016,04,24,15,52,12.10
2016,04,24,15,53,12.00
2016,04,24,15,54,12.00
2016,04,24,15,55,11.90
2016,04,24,15,56,11.90
2016,04,24,15,57,11.90
2016,04,24,15,58,11.90
2016,04,24,15,59,11.90
2016,04,24,16,00,11.80
2016,04,24,16,01,11.80
2016,04,24,16,02,11.80
2016,04,24,16,03,11.80
2016,04,24,16,04,11.80
2016,04,24,16,05,11.80
2016,04,24,16,06,11.80
2016,04,24,16,07,11.80
2016,04,24,16,08,11.80
2016,04,24,16,09,11.80
2016,04,24,16,10,11.80
2016,04,24,16,11,11.80
2016,04,24,16,12,11.80
2016,04,24,16,13,11.80
2016,04,24,16,14,11.80
2016,04,24,16,15,11.80
2016,04,24,16,16,11.80
2016,04,24,16,17,11.70
2016,04,24,16,18,11.70
2016,04,24,16,19,11.70
2016,04,24,16,20,11.60
2016,04,24,16,21,11.50
2016,04,24,16,22,11.40
2016,04,24,16,23,11.30
2016,04,24,16,24,11.20
2016,04,24,16,25,11.10
2016,04,24,16,26,11.00
2016,04,24,16,27,10.80
2016,04,24,16,28,10.70
2016,04,24,16,29,10.60
2016,04,24,16,30,10.50
2016,04,24,16,31,10.40
2016,04,24,16,32,10.30
2016,04,24,16,33,10.30
2016,04,24,16,34,10.20
2016,04,24,16,35,10.20
2016,04,24,16,36,10.20
2016,04,24,16,37,10.10
2016,04,24,16,38,10.00
2016,04,24,16,39,10.00
2016,04,24,16,40,9.90
2016,04,24,16,41,9.90
2016,04,24,16,42,9.90
2016,04,24,16,43,9.80
2016,04,24,16,44,9.80
2016,04,24,16,45,9.80
2016,04,24,16,46,9.80
2016,04,24,16,47,9.80
2016,04,24,16,48,9.70
2016,04,24,16,49,9.70
2016,04,24,16,50,9.60
2016,04,24,16,51,9.60
2016,04,24,16,52,9.50
2016,04,24,16,53,9.50
2016,04,24,16,54,9.40
2016,04,24,16,55,9.40
2016,04,24,16,56,9.40
2016,04,24,16,57,9.30
2016,04,24,16,58,9.30
2016,04,24,16,59,9.30
2016,04,24,17,00,9.30
2016,04,24,17,01,9.30
2016,04,24,17,02,9.30
2016,04,24,17,03,9.30
2016,04,24,17,04,9.30
2016,04,24,17,05,9.30
2016,04,24,17,06,9.20
2016,04,24,17,07,9.20
2016,04,24,17,08,9.20
2016,04,24,17,09,9.20
2016,04,24,17,10,9.20
2016,04,24,17,11,9.20
2016,04,24,17,12,9.20
2016,04,24,17,13,9.20
2016,04,24,17,14,9.10
2016,04,24,17,15,9.10
2016,04,24,17,16,9.10
2016,04,24,17,17,9.20
2016,04,24,17,18,9.20
2016,04,24,17,19,9.20
2016,04,24,17,20,9.20
2016,04,24,17,21,9.20
2016,04,24,17,22,9.30
2016,04,24,17,23,9.30
2016,04,24,17,24,9.30
2016,04,24,17,25,9.30
2016,04,24,17,26,9.30
2016,04,24,17,27,9.30
2016,04,24,17,28,9.30
2016,04,24,17,29,9.40
2016,04,24,17,30,9.40
2016,04,24,17,31,9.40
2016,04,24,17,32,9.40
2016,04,24,17,33,9.40
2016,04,24,17,34,9.40
2016,04,24,17,35,9.40
2016,04,24,17,36,9.40
2016,04,24,17,37,9.40
2016,04,24,17,38,9.40
2016,04,24,17,39,9.40
2016,04,24,17,40,9.40
2016,04,24,17,41,9.40
2016,04,24,17,42,9.50
2016,04,24,17,43,9.50
2016,04,24,17,44,9.50
2016,04,24,17,45,9.60
2016,04,24,17,46,9.60
2016,04,24,17,47,9.60
2016,04,24,17,48,9.70
2016,04,24,17,49,9.80
2016,04,24,17,50,9.80
2016,04,24,17,51,9.90